Location: Kawakawa
(35.3830°S, 174.0670°E)
Time: 15:23:53
(UTC+13:00)

Transit 2A Rocket - Visible Passes

Search period start: 13 December 2019 00:00
Search period end: 23 December 2019 00:00
Orbit: 594 x 909 km, 66.7° (Epoch: 12 December)

Date Brightness Start Highest point End Pass type
(mag) Time Alt. Az. Time Alt. Az. Time Alt. Az.
13 Dec 5.6 04:36:47 16° NNW 04:41:24 65° ENE 04:47:24 10° SSE visible
14 Dec 6.4 03:55:43 20° NNE 03:59:02 37° ENE 04:04:30 10° SE visible
15 Dec 7.0 03:14:35 17° NE 03:16:48 21° ENE 03:21:07 10° ESE visible
15 Dec 5.6 04:54:30 17° NW 04:58:56 53° WSW 05:04:54 10° SSE visible
16 Dec 7.6 02:33:25 10° ENE 02:34:40 11° E 02:36:11 10° E visible
16 Dec 5.2 04:13:20 30° NNW 04:16:19 89° WSW 04:22:27 10° SSE visible
17 Dec 5.7 03:32:06 39° NNE 03:33:52 54° ENE 03:39:45 10° SE visible
17 Dec 6.8 05:12:11 10° WNW 05:16:51 24° SW 05:21:44 10° S visible
18 Dec 6.4 02:50:49 30° ENE 02:51:32 30° ENE 02:56:44 10° SE visible
18 Dec 6.1 04:30:44 21° WNW 04:34:01 38° SW 04:39:42 10° SSE visible
19 Dec 7.2 02:09:30 17° E 02:09:30 17° E 02:13:04 10° ESE visible
19 Dec 5.4 03:49:24 42° WNW 03:51:18 64° WSW 03:57:23 10° SSE visible
19 Dec 7.5 05:33:21 10° WSW 05:35:13 11° SW 05:37:06 10° SSW visible
20 Dec 5.2 03:08:02 67° N 03:08:45 77° ENE 03:14:51 10° SSE visible
20 Dec 7.2 04:48:09 10° W 04:52:06 18° SW 04:56:11 10° S visible
21 Dec 5.9 02:26:37 44° ENE 02:26:37 44° ENE 02:32:04 10° SE visible
21 Dec 6.6 04:06:31 21° W 04:09:09 28° SW 04:14:22 10° S visible
22 Dec 6.9 01:45:09 24° E 01:45:09 24° E 01:48:53 10° SE visible
22 Dec 5.9 03:25:03 39° W 03:26:21 45° WSW 03:32:14 10° SSE visible
